| time (UTC) | temp C | wind direction | speed KPH | gust KPH | rain 1hr cm | rain 24hr cm | rain mn cm | humidity % | barometer mb |
| 20260510104604 | 7 | 0 | 0.0 | 0.0 | 0.00 | 0.08 | 0.08 | 92 | 1031.8 |
| 20260510103052 | 7 | 0 | 0.0 | 0.0 | 0.00 | 0.08 | 0.08 | 91 | 1031.7 |
| 20260510101546 | 7 | 0 | 0.0 | 0.0 | 0.00 | 0.08 | 0.08 | 91 | 1031.8 |
| 20260510100052 | 7 | 0 | 0.0 | 0.0 | 0.00 | 0.08 | 0.08 | 90 | 1031.6 |
| 20260510094547 | 7 | 0 | 0.0 | 0.0 | 0.00 | 0.08 | 0.08 | 88 | 1031.6 |
| 20260510093048 | 7 | 0 | 0.0 | 0.0 | 0.00 | 0.08 | 0.08 | 87 | 1031.5 |
| 20260510091546 | 8 | 0 | 0.0 | 0.0 | 0.00 | 0.08 | 0.08 | 86 | 1031.5 |
| 20260510090047 | 8 | 0 | 0.0 | 0.0 | 0.00 | 0.08 | 0.08 | 85 | 1031.3 |
| 20260510084552 | 9 | 0 | 0.0 | 0.0 | 0.00 | 0.08 | 0.08 | 84 | 1031.2 |
| 20260510083100 | 10 | 0 | 0.0 | 0.0 | 0.00 | 0.08 | 0.08 | 81 | 1031.1 |
| 20260510081552 | 11 | 0 | 0.0 | 0.0 | 0.00 | 0.08 | 0.08 | 80 | 1030.9 |
| 20260510080057 | 11 | 0 | 0.0 | 0.0 | 0.00 | 0.08 | 0.08 | 77 | 1030.9 |
| 20260510074602 | 12 | 0 | 0.0 | 0.0 | 0.00 | 0.08 | 0.08 | 75 | 1030.7 |
| 20260510073050 | 13 | 0 | 0.0 | 3.2 | 0.00 | 0.08 | 0.08 | 75 | 1030.6 |
| 20260510071557 | 13 | 0 | 0.0 | 3.2 | 0.00 | 0.08 | 0.08 | 74 | 1030.6 |
| 20260510070043 | 14 | 0 | 0.0 | 4.8 | 0.00 | 0.08 | 0.08 | 72 | 1030.4 |
| 20260510064607 | 15 | 0 | 0.0 | 3.2 | 0.00 | 0.08 | 0.08 | 70 | 1030.3 |
| 20260510063056 | 15 | 0 | 0.0 | 0.0 | 0.00 | 0.08 | 0.08 | 70 | 1030.1 |
| 20260510061549 | 16 | 0 | 3.2 | 14.5 | 0.00 | 0.08 | 0.08 | 68 | 1030.2 |
| 20260510060055 | 16 | 124 | 1.6 | 9.7 | 0.00 | 0.08 | 0.08 | 67 | 1030.1 |
| 20260510054545 | 17 | 0 | 0.0 | 4.8 | 0.00 | 0.08 | 0.08 | 65 | 1030.0 |
| 20260510053049 | 16 | 0 | 0.0 | 9.7 | 0.00 | 0.08 | 0.08 | 67 | 1029.9 |
| 20260510051552 | 16 | 123 | 1.6 | 6.4 | 0.00 | 0.08 | 0.08 | 67 | 1029.8 |
| 20260510050046 | 16 | 126 | 3.2 | 8.0 | 0.00 | 0.08 | 0.08 | 68 | 1029.8 |
| 20260510044542 | 16 | 0 | 1.6 | 9.7 | 0.00 | 0.08 | 0.08 | 68 | 1029.8 |
| 20260510043050 | 16 | 0 | 1.6 | 9.7 | 0.00 | 0.08 | 0.08 | 69 | 1029.8 |
| 20260510041605 | 16 | 151 | 3.2 | 9.7 | 0.00 | 0.08 | 0.08 | 70 | 1029.7 |
| 20260510040046 | 16 | 198 | 1.6 | 8.0 | 0.00 | 0.08 | 0.08 | 71 | 1029.9 |
| 20260510034545 | 15 | 139 | 1.6 | 9.7 | 0.00 | 0.08 | 0.08 | 71 | 1030.1 |
| 20260510033043 | 15 | 161 | 3.2 | 9.7 | 0.00 | 0.08 | 0.08 | 72 | 1030.1 |
| 20260510031541 | 15 | 0 | 0.0 | 9.7 | 0.00 | 0.08 | 0.08 | 73 | 1030.2 |
| 20260510030049 | 15 | 0 | 0.0 | 6.4 | 0.00 | 0.08 | 0.08 | 73 | 1030.3 |
| 20260510024556 | 15 | 0 | 0.0 | 11.3 | 0.00 | 0.08 | 0.08 | 75 | 1030.4 |
| 20260510023044 | 15 | 163 | 0.0 | 11.3 | 0.00 | 0.08 | 0.08 | 76 | 1030.7 |
| 20260510021542 | 14 | 0 | 1.6 | 8.0 | 0.00 | 0.08 | 0.08 | 75 | 1030.8 |
| 20260510020052 | 14 | 188 | 1.6 | 12.9 | 0.00 | 0.08 | 0.08 | 77 | 1031.0 |
| 20260510014553 | 14 | 0 | 0.0 | 11.3 | 0.00 | 0.10 | 0.08 | 79 | 1031.1 |
| 20260510013055 | 13 | 215 | 0.0 | 9.7 | 0.00 | 0.10 | 0.08 | 81 | 1031.3 |
| 20260510011549 | 13 | 197 | 0.0 | 9.7 | 0.00 | 0.10 | 0.08 | 83 | 1031.4 |
| 20260510010059 | 13 | 0 | 0.0 | 8.0 | 0.00 | 0.10 | 0.08 | 86 | 1031.4 |
| 20260510004546 | 12 | 261 | 3.2 | 11.3 | 0.00 | 0.10 | 0.08 | 89 | 1031.4 |
| 20260510003048 | 12 | 295 | 3.2 | 9.7 | 0.00 | 0.10 | 0.08 | 93 | 1031.4 |
| 20260510001549 | 12 | 194 | 0.0 | 8.0 | 0.00 | 0.10 | 0.08 | 94 | 1031.5 |
| 20260510000053 | 12 | 201 | 0.0 | 8.0 | 0.00 | 0.10 | 0.08 | 95 | 1031.5 |
| 20260509234600 | 12 | 200 | 1.6 | 8.0 | 0.00 | 0.10 | 0.08 | 96 | 1031.4 |
| 20260509233046 | 12 | 212 | 3.2 | 6.4 | 0.00 | 0.10 | 0.08 | 96 | 1031.4 |
| 20260509231550 | 11 | 0 | 0.0 | 4.8 | 0.00 | 0.10 | 0.08 | 96 | 1031.3 |
| 20260509230048 | 11 | 0 | 0.0 | 3.2 | 0.00 | 0.10 | 0.08 | 96 | 1031.2 |
| 20260509224551 | 11 | 0 | 0.0 | 0.0 | 0.00 | 0.10 | 0.08 | 96 | 1031.1 |
| 20260509223049 | 11 | 0 | 0.0 | 0.0 | 0.00 | 0.10 | 0.08 | 96 | 1031.1 |
| 20260509221603 | 11 | 0 | 0.0 | 1.6 | 0.00 | 0.10 | 0.08 | 96 | 1030.9 |
| 20260509220059 | 11 | 0 | 0.0 | 0.0 | 0.00 | 0.10 | 0.08 | 96 | 1030.8 |
| 20260509214548 | 11 | 0 | 0.0 | 3.2 | 0.00 | 0.10 | 0.08 | 96 | 1030.7 |
| 20260509213049 | 11 | 0 | 0.0 | 0.0 | 0.00 | 0.10 | 0.08 | 96 | 1030.5 |
| 20260509211547 | 11 | 0 | 0.0 | 6.4 | 0.03 | 0.10 | 0.08 | 96 | 1030.2 |
| 20260509210055 | 11 | 197 | 1.6 | 9.7 | 0.03 | 0.10 | 0.08 | 96 | 1030.1 |
| 20260509204547 | 11 | 0 | 0.0 | 6.4 | 0.05 | 0.10 | 0.08 | 96 | 1030.0 |
| 20260509203058 | 11 | 0 | 0.0 | 3.2 | 0.03 | 0.08 | 0.08 | 96 | 1029.9 |
| 20260509201542 | 11 | 201 | 0.0 | 6.4 | 0.00 | 0.08 | 0.05 | 96 | 1029.7 |
| 20260509200047 | 11 | 227 | 0.0 | 3.2 | 0.00 | 0.08 | 0.05 | 96 | 1029.6 |
| 20260509194545 | 11 | 186 | 0.0 | 0.0 | 0.00 | 0.08 | 0.03 | 95 | 1029.5 |
| 20260509193059 | 11 | 198 | 1.6 | 8.0 | 0.00 | 0.08 | 0.03 | 96 | 1029.3 |
| 20260509191607 | 11 | 236 | 3.2 | 8.0 | 0.00 | 0.08 | 0.03 | 96 | 1029.2 |
| 20260509184547 | 11 | 246 | 3.2 | 12.9 | 0.00 | 0.08 | 0.03 | 96 | 1028.8 |
| 20260509183048 | 11 | 209 | 1.6 | 11.3 | 0.00 | 0.08 | 0.00 | 95 | 1028.7 |
| 20260509181544 | 11 | 0 | 0.0 | 8.0 | 0.00 | 0.08 | 0.00 | 95 | 1028.6 |
| 20260509180044 | 11 | 200 | 4.8 | 11.3 | 0.00 | 0.08 | 0.00 | 95 | 1028.5 |
| 20260509174550 | 11 | 0 | 0.0 | 4.8 | 0.00 | 0.08 | 0.00 | 95 | 1028.4 |
| 20260509173052 | 11 | 0 | 1.6 | 6.4 | 0.00 | 0.08 | 0.00 | 95 | 1028.6 |
| 20260509171559 | 11 | 0 | 0.0 | 9.7 | 0.00 | 0.08 | 0.00 | 95 | 1028.6 |
| 20260509170047 | 11 | 209 | 0.0 | 4.8 | 0.00 | 0.08 | 0.00 | 95 | 1028.6 |
| 20260509164550 | 11 | 0 | 0.0 | 4.8 | 0.00 | 0.08 | 0.00 | 95 | 1028.7 |
| 20260509163053 | 11 | 181 | 0.0 | 9.7 | 0.00 | 0.08 | 0.00 | 95 | 1028.8 |
| 20260509161547 | 11 | 227 | 3.2 | 8.0 | 0.00 | 0.08 | 0.00 | 96 | 1028.9 |
| 20260509160050 | 11 | 182 | 0.0 | 6.4 | 0.00 | 0.08 | 0.00 | 95 | 1028.9 |
| 20260509154548 | 11 | 0 | 1.6 | 11.3 | 0.00 | 0.08 | 0.00 | 95 | 1028.7 |
| 20260509153045 | 11 | 215 | 1.6 | 8.0 | 0.00 | 0.08 | 0.00 | 96 | 1028.8 |
| 20260509151542 | 11 | 0 | 0.0 | 4.8 | 0.00 | 0.08 | 0.00 | 96 | 1028.8 |
| 20260509150049 | 11 | 207 | 1.6 | 6.4 | 0.00 | 0.08 | 0.00 | 96 | 1028.8 |
| 20260509144550 | 11 | 0 | 0.0 | 0.0 | 0.00 | 0.05 | 0.00 | 95 | 1028.8 |
| 20260509143048 | 11 | 0 | 0.0 | 0.0 | 0.00 | 0.05 | 0.00 | 95 | 1028.8 |
| 20260509141550 | 11 | 0 | 0.0 | 0.0 | 0.00 | 0.05 | 0.00 | 95 | 1028.8 |
| 20260509140051 | 11 | 0 | 0.0 | 0.0 | 0.00 | 0.05 | 0.00 | 95 | 1028.9 |
| 20260509134550 | 10 | 0 | 0.0 | 0.0 | 0.00 | 0.05 | 0.05 | 95 | 1028.9 |
| 20260509133046 | 10 | 0 | 0.0 | 0.0 | 0.00 | 0.05 | 0.05 | 95 | 1029.0 |
| 20260509131601 | 10 | 0 | 0.0 | 0.0 | 0.00 | 0.05 | 0.05 | 95 | 1029.1 |
| 20260509130059 | 10 | 0 | 0.0 | 0.0 | 0.00 | 0.05 | 0.05 | 95 | 1029.1 |
| 20260509124545 | 10 | 0 | 0.0 | 0.0 | 0.00 | 0.05 | 0.05 | 95 | 1029.1 |
| 20260509123050 | 10 | 0 | 0.0 | 0.0 | 0.00 | 0.05 | 0.05 | 94 | 1029.0 |
| 20260509121550 | 10 | 0 | 0.0 | 0.0 | 0.00 | 0.05 | 0.05 | 94 | 1028.9 |
| 20260509120048 | 10 | 0 | 0.0 | 0.0 | 0.00 | 0.05 | 0.05 | 94 | 1029.1 |
| 20260509114604 | 9 | 0 | 0.0 | 0.0 | 0.00 | 0.05 | 0.05 | 94 | 1029.1 |
| 20260509113047 | 9 | 0 | 0.0 | 0.0 | 0.00 | 0.05 | 0.05 | 94 | 1028.9 |
| 20260509111548 | 9 | 0 | 0.0 | 0.0 | 0.00 | 0.05 | 0.05 | 94 | 1028.8 |